Regional Weather Roundup
Issued by NWS

Home | Current Version | Previous Version | Graphics & Text | Print | Product List | Glossary On
Versions: 1 2 3 4 5 6 7 8 9 10 11 12 13 14 15 16 17 18 19 20 21 22 23 24 25 26 27 28 29 30 31 32 33 34 35 36 37 38 39 40 41 42 43 44 45 46 47 48 49 50
822
ASUS43 KTOP 250408
RWRKS

WEATHER ROUNDUP FOR KANSAS
NATIONAL WEATHER SERVICE GOODLAND KS
1100 PM CDT SUN JUL 24 2016

NOTE:  "FAIR" INDICATES FEW OR NO CLOUDS BELOW 12,000 FEET WITH NO
SIGNIFICANT WEATHER AND/OR OBSTRUCTIONS TO VISIBILITY.

KSZ001>006-013>018-027>032-041>047-250500-
NORTHWEST KANSAS

CITY           SKY/WX    TMP DP  RH WIND       PRES   REMARKS
GOODLAND       TSTM      65  63  93 NW17      30.29R
HAYS           MOCLDY    73  59  60 NE14      30.05S
HILL CITY      CLOUDY    76  61  59 NE9       30.12R
RUSSELL        CLOUDY    76  64  66 NE14      30.04R
$$

KSZ061>065-074>080-084>089-250500-
SOUTHWEST KANSAS

CITY           SKY/WX    TMP DP  RH WIND       PRES   REMARKS
DODGE CITY     CLOUDY    82  69  64 NE14      30.04R
ELKHART          N/A     69  64  84 MISG        N/A
GARDEN CITY    CLOUDY    80  68  66 NE17G24   30.06R
GREAT BEND     CLOUDY    79  64  61 NE10G16   30.03R
LIBERAL        CLOUDY    84  63  48 S17       30.05R
PRATT          CLOUDY    81  69  67 NE12      29.99R
$$

KSZ066>073-081>083-090>101-250500-
SOUTHEAST KANSAS

CITY           SKY/WX    TMP DP  RH WIND       PRES   REMARKS
CHANUTE        CLOUDY    85  75  72 SE5       29.96R
COFFEYVILLE    CLOUDY    88  74  63 SE6       29.95R HX  96
HUTCHINSON     CLOUDY    85  73  67 NE8       29.99R
MEDICINE LODGE   N/A     89  65  44 E5        29.94R
NEWTON         CLOUDY    83  74  74 E9        30.01R
PARSONS        CLOUDY    84  75  74 SE3       29.97R
WICHITA INTL   PTCLDY    88  70  55 SE8       29.96R
WICHITA JABRA  CLEAR     82  75  79 CALM      29.97R
WICHITA MCCONL CLEAR     87  71  59 SE6       29.97R
WINFIELD       CLEAR     85  71  63 SE5       29.97R
$$

KSZ007>012-019>026-033>040-048>060-102>105-250500-
NORTHEAST KANSAS

CITY           SKY/WX    TMP DP  RH WIND       PRES   REMARKS
CONCORDIA      CLEAR     72  63  73 E5        30.05R
EMPORIA        PTCLDY    81  76  84 NE8       29.99R
LAWRENCE       CLOUDY    78  69  73 E6        30.00R
MANHATTAN      PTCLDY    76  67  73 NE5       30.02R
MARYSVILLE     CLEAR     70  63  78 CALM      30.04R
OLATHE IND     CLOUDY    82  72  71 NE10      30.01R
OLATHE EXE     CLOUDY    81  72  74 NE10      30.00R
SALINA         CLOUDY    80  67  64 NE12      30.01R
TOPEKA BILLARD CLOUDY    79  69  71 NE3       30.00R
TOPEKA FORBES  CLOUDY    81  69  67 E7        30.00R
$$




USA.gov is the U.S. government's official web portal to all federal, state and local government web resources and services.